Year,Month,Day,Hour,Minute,Value (Times are PST for temperature in C)
2015,06,23,00,00,14.70
2015,06,23,00,01,14.70
2015,06,23,00,02,14.70
2015,06,23,00,03,14.70
2015,06,23,00,04,14.70
2015,06,23,00,05,14.60
2015,06,23,00,06,14.60
2015,06,23,00,07,14.60
2015,06,23,00,08,14.60
2015,06,23,00,09,14.50
2015,06,23,00,10,14.50
2015,06,23,00,11,14.50
2015,06,23,00,12,14.50
2015,06,23,00,13,14.40
2015,06,23,00,14,14.40
2015,06,23,00,15,14.40
2015,06,23,00,16,14.40
2015,06,23,00,17,14.40
2015,06,23,00,18,14.40
2015,06,23,00,19,14.40
2015,06,23,00,20,14.40
2015,06,23,00,21,14.30
2015,06,23,00,22,14.30
2015,06,23,00,23,14.30
2015,06,23,00,24,14.30
2015,06,23,00,25,14.30
2015,06,23,00,26,14.30
2015,06,23,00,27,14.30
2015,06,23,00,28,14.20
2015,06,23,00,29,14.20
2015,06,23,00,30,14.20
2015,06,23,00,31,14.20
2015,06,23,00,32,14.20
2015,06,23,00,33,14.20
2015,06,23,00,34,14.20
2015,06,23,00,35,14.20
2015,06,23,00,36,14.20
2015,06,23,00,37,14.10
2015,06,23,00,38,14.10
2015,06,23,00,39,14.10
2015,06,23,00,40,14.10
2015,06,23,00,41,14.10
2015,06,23,00,42,14.10
2015,06,23,00,43,14.10
2015,06,23,00,44,14.10
2015,06,23,00,45,14.10
2015,06,23,00,46,14.00
2015,06,23,00,47,14.00
2015,06,23,00,48,14.00
2015,06,23,00,49,13.90
2015,06,23,00,50,13.90
2015,06,23,00,51,13.90
2015,06,23,00,52,13.90
2015,06,23,00,53,13.80
2015,06,23,00,54,13.80
2015,06,23,00,55,13.80
2015,06,23,00,56,13.80
2015,06,23,00,57,13.70
2015,06,23,00,58,13.70
2015,06,23,00,59,13.70
2015,06,23,01,00,13.70
2015,06,23,01,01,13.70
2015,06,23,01,02,13.70
2015,06,23,01,03,13.70
2015,06,23,01,04,13.70
2015,06,23,01,05,13.60
2015,06,23,01,06,13.60
2015,06,23,01,07,13.60
2015,06,23,01,08,13.60
2015,06,23,01,09,13.60
2015,06,23,01,10,13.60
2015,06,23,01,11,13.60
2015,06,23,01,12,13.60
2015,06,23,01,13,13.50
2015,06,23,01,14,13.50
2015,06,23,01,15,13.50
2015,06,23,01,16,13.50
2015,06,23,01,17,13.40
2015,06,23,01,18,13.40
2015,06,23,01,19,13.40
2015,06,23,01,20,13.40
2015,06,23,01,21,13.40
2015,06,23,01,22,13.40
2015,06,23,01,23,13.40
2015,06,23,01,24,13.40
2015,06,23,01,25,13.40
2015,06,23,01,26,13.40
2015,06,23,01,27,13.30
2015,06,23,01,28,13.30
2015,06,23,01,29,13.30
2015,06,23,01,30,13.30
2015,06,23,01,31,13.30
2015,06,23,01,32,13.30
2015,06,23,01,33,13.20
2015,06,23,01,34,13.20
2015,06,23,01,35,13.20
2015,06,23,01,36,13.20
2015,06,23,01,37,13.20
2015,06,23,01,38,13.10
2015,06,23,01,39,13.10
2015,06,23,01,40,13.10
2015,06,23,01,41,13.10
2015,06,23,01,42,13.00
2015,06,23,01,43,13.00
2015,06,23,01,44,13.00
2015,06,23,01,45,13.00
2015,06,23,01,46,12.90
2015,06,23,01,47,12.90
2015,06,23,01,48,12.90
2015,06,23,01,49,12.90
2015,06,23,01,50,12.90
2015,06,23,01,51,12.90
2015,06,23,01,52,12.90
2015,06,23,01,53,12.90
2015,06,23,01,54,12.90
2015,06,23,01,55,12.90
2015,06,23,01,56,12.90
2015,06,23,01,57,12.80
2015,06,23,01,58,12.80
2015,06,23,01,59,12.80
2015,06,23,02,00,12.80
2015,06,23,02,01,12.80
2015,06,23,02,02,12.80
2015,06,23,02,03,12.80
2015,06,23,02,04,12.80
2015,06,23,02,05,12.70
2015,06,23,02,06,12.70
2015,06,23,02,07,12.70
2015,06,23,02,08,12.70
2015,06,23,02,09,12.70
2015,06,23,02,10,12.70
2015,06,23,02,11,12.70
2015,06,23,02,12,12.70
2015,06,23,02,13,12.60
2015,06,23,02,14,12.60
2015,06,23,02,15,12.60
2015,06,23,02,16,12.60
2015,06,23,02,17,12.60
2015,06,23,02,18,12.60
2015,06,23,02,19,12.60
2015,06,23,02,20,12.60
2015,06,23,02,21,12.60
2015,06,23,02,22,12.60
2015,06,23,02,23,12.60
2015,06,23,02,24,12.70
2015,06,23,02,25,12.70
2015,06,23,02,26,12.70
2015,06,23,02,27,12.70
2015,06,23,02,28,12.70
2015,06,23,02,29,12.80
2015,06,23,02,30,12.80
2015,06,23,02,31,12.90
2015,06,23,02,32,13.00
2015,06,23,02,33,13.20
2015,06,23,02,34,13.30
2015,06,23,02,35,13.50
2015,06,23,02,36,13.60
2015,06,23,02,37,13.70
2015,06,23,02,38,13.80
2015,06,23,02,39,13.90
2015,06,23,02,40,13.90
2015,06,23,02,41,13.90
2015,06,23,02,42,13.90
2015,06,23,02,43,13.90
2015,06,23,02,44,13.90
2015,06,23,02,45,13.90
2015,06,23,02,46,13.80
2015,06,23,02,47,13.80
2015,06,23,02,48,13.70
2015,06,23,02,49,13.70
2015,06,23,02,50,13.60
2015,06,23,02,51,13.60
2015,06,23,02,52,13.50
2015,06,23,02,53,13.50
2015,06,23,02,54,13.40
2015,06,23,02,55,13.40
2015,06,23,02,56,13.40
2015,06,23,02,57,13.40
2015,06,23,02,58,13.40
2015,06,23,02,59,13.40
2015,06,23,03,00,13.30
2015,06,23,03,01,13.30
2015,06,23,03,02,13.30
2015,06,23,03,03,13.30
2015,06,23,03,04,13.30
2015,06,23,03,05,13.30
2015,06,23,03,06,13.30
2015,06,23,03,07,13.20
2015,06,23,03,08,13.20
2015,06,23,03,09,13.20
2015,06,23,03,10,13.10
2015,06,23,03,11,13.10
2015,06,23,03,12,13.00
2015,06,23,03,13,13.00
2015,06,23,03,14,12.90
2015,06,23,03,15,12.90
2015,06,23,03,16,12.80
2015,06,23,03,17,12.80
2015,06,23,03,18,12.80
2015,06,23,03,19,12.70
2015,06,23,03,20,12.70
2015,06,23,03,21,12.70
2015,06,23,03,22,12.60
2015,06,23,03,23,12.60
2015,06,23,03,24,12.50
2015,06,23,03,25,12.50
2015,06,23,03,26,12.50
2015,06,23,03,27,12.40
2015,06,23,03,28,12.40
2015,06,23,03,29,12.40
2015,06,23,03,30,12.40
2015,06,23,03,31,12.30
2015,06,23,03,32,12.30
2015,06,23,03,33,12.30
2015,06,23,03,34,12.30
2015,06,23,03,35,12.30
2015,06,23,03,36,12.30
2015,06,23,03,37,12.30
2015,06,23,03,38,12.20
2015,06,23,03,39,12.20
2015,06,23,03,40,12.20
2015,06,23,03,41,12.20
2015,06,23,03,42,12.20
2015,06,23,03,43,12.20
2015,06,23,03,44,12.20
2015,06,23,03,45,12.10
2015,06,23,03,46,12.10
2015,06,23,03,47,12.10
2015,06,23,03,48,12.10
2015,06,23,03,49,12.10
2015,06,23,03,50,12.10
2015,06,23,03,51,12.10
2015,06,23,03,52,12.10
2015,06,23,03,53,12.00
2015,06,23,03,54,12.00
2015,06,23,03,55,12.00
2015,06,23,03,56,12.00
2015,06,23,03,57,11.90
2015,06,23,03,58,11.90
2015,06,23,03,59,11.90
2015,06,23,04,00,11.90
2015,06,23,04,01,11.90
2015,06,23,04,02,11.90
2015,06,23,04,03,11.90
2015,06,23,04,04,11.90
2015,06,23,04,05,11.80
2015,06,23,04,06,11.80
2015,06,23,04,07,11.80
2015,06,23,04,08,11.80
2015,06,23,04,09,11.80
2015,06,23,04,10,11.80
2015,06,23,04,11,11.80
2015,06,23,04,12,11.80
2015,06,23,04,13,11.80
2015,06,23,04,14,11.70
2015,06,23,04,15,11.70
2015,06,23,04,16,11.70
2015,06,23,04,17,11.70
2015,06,23,04,18,11.70
2015,06,23,04,19,11.70
2015,06,23,04,20,11.60
2015,06,23,04,21,11.60
2015,06,23,04,22,11.60
2015,06,23,04,23,11.60
2015,06,23,04,24,11.60
2015,06,23,04,25,11.60
2015,06,23,04,26,11.50
2015,06,23,04,27,11.50
2015,06,23,04,28,11.50
2015,06,23,04,29,11.40
2015,06,23,04,30,11.40
2015,06,23,04,31,11.40
2015,06,23,04,32,11.40
2015,06,23,04,33,11.40
2015,06,23,04,34,11.30
2015,06,23,04,35,11.30
2015,06,23,04,36,11.30
2015,06,23,04,37,11.30
2015,06,23,04,38,11.30
2015,06,23,04,39,11.30
2015,06,23,04,40,11.20
2015,06,23,04,41,11.20
2015,06,23,04,42,11.20
2015,06,23,04,43,11.20
2015,06,23,04,44,11.20
2015,06,23,04,45,11.10
2015,06,23,04,46,11.10
2015,06,23,04,47,11.10
2015,06,23,04,48,11.10
2015,06,23,04,49,11.10
2015,06,23,04,50,11.10
2015,06,23,04,51,11.10
2015,06,23,04,52,11.10
2015,06,23,04,53,11.10
2015,06,23,04,54,11.00
2015,06,23,04,55,11.00
2015,06,23,04,56,11.00
2015,06,23,04,57,11.00
2015,06,23,04,58,10.90
2015,06,23,04,59,10.90
2015,06,23,05,00,10.90
2015,06,23,05,01,10.90
2015,06,23,05,02,10.80
2015,06,23,05,03,10.80
2015,06,23,05,04,10.80
2015,06,23,05,05,10.80
2015,06,23,05,06,10.80
2015,06,23,05,07,10.70
2015,06,23,05,08,10.70
2015,06,23,05,09,10.60
2015,06,23,05,10,10.60
2015,06,23,05,11,10.60
2015,06,23,05,12,10.50
2015,06,23,05,13,10.50
2015,06,23,05,14,10.40
2015,06,23,05,15,10.40
2015,06,23,05,16,10.40
2015,06,23,05,17,10.40
2015,06,23,05,18,10.30
2015,06,23,05,19,10.30
2015,06,23,05,20,10.30
2015,06,23,05,21,10.20
2015,06,23,05,22,10.20
2015,06,23,05,23,10.20
2015,06,23,05,24,10.20
2015,06,23,05,25,10.10
2015,06,23,05,26,10.10
2015,06,23,05,27,10.10
2015,06,23,05,28,10.10
2015,06,23,05,29,10.10
2015,06,23,05,30,10.10
2015,06,23,05,31,10.00
2015,06,23,05,32,10.00
2015,06,23,05,33,10.00
2015,06,23,05,34,10.00
2015,06,23,05,35,9.90
2015,06,23,05,36,9.90
2015,06,23,05,37,9.90
2015,06,23,05,38,9.90
2015,06,23,05,39,9.90
2015,06,23,05,40,9.90
2015,06,23,05,41,9.90
2015,06,23,05,42,9.90
2015,06,23,05,43,9.90
2015,06,23,05,44,9.90
2015,06,23,05,45,9.90
2015,06,23,05,46,9.90
2015,06,23,05,47,9.90
2015,06,23,05,48,9.90
2015,06,23,05,49,9.90
2015,06,23,05,50,9.90
2015,06,23,05,51,9.90
2015,06,23,05,52,9.90
2015,06,23,05,53,9.90
2015,06,23,05,54,9.90
2015,06,23,05,55,9.90
2015,06,23,05,56,9.90
2015,06,23,05,57,10.00
2015,06,23,05,58,10.00
2015,06,23,05,59,10.00
2015,06,23,06,00,10.00
2015,06,23,06,01,10.00
2015,06,23,06,02,10.00
2015,06,23,06,03,10.00
2015,06,23,06,04,10.00
2015,06,23,06,05,10.00
2015,06,23,06,06,9.90
2015,06,23,06,07,9.90
2015,06,23,06,08,9.90
2015,06,23,06,09,9.90
2015,06,23,06,10,9.90
2015,06,23,06,11,9.90
2015,06,23,06,12,9.90
2015,06,23,06,13,9.80
2015,06,23,06,14,9.80
2015,06,23,06,15,9.80
2015,06,23,06,16,9.80
2015,06,23,06,17,9.80
2015,06,23,06,18,9.80
2015,06,23,06,19,9.70
2015,06,23,06,20,9.70
2015,06,23,06,21,9.70
2015,06,23,06,22,9.70
2015,06,23,06,23,9.70
2015,06,23,06,24,9.70
2015,06,23,06,25,9.70
2015,06,23,06,26,9.70
2015,06,23,06,27,9.70
2015,06,23,06,28,9.70
2015,06,23,06,29,9.70
2015,06,23,06,30,9.70
2015,06,23,06,31,9.70
2015,06,23,06,32,9.70
2015,06,23,06,33,9.70
2015,06,23,06,34,9.70
2015,06,23,06,35,9.70
2015,06,23,06,36,9.70
2015,06,23,06,37,9.70
2015,06,23,06,38,9.70
2015,06,23,06,39,9.70
2015,06,23,06,40,9.70
2015,06,23,06,41,9.70
2015,06,23,06,42,9.70
2015,06,23,06,43,9.70
2015,06,23,06,44,9.70
2015,06,23,06,45,9.70
2015,06,23,06,46,9.70
2015,06,23,06,47,9.70
2015,06,23,06,48,9.70
2015,06,23,06,49,9.70
2015,06,23,06,50,9.70
2015,06,23,06,51,9.70
2015,06,23,06,52,9.70
2015,06,23,06,53,9.70
2015,06,23,06,54,9.70
2015,06,23,06,55,9.70
2015,06,23,06,56,9.80
2015,06,23,06,57,9.70
2015,06,23,06,58,9.80
2015,06,23,06,59,9.80
2015,06,23,07,00,9.80
2015,06,23,07,01,9.80
2015,06,23,07,02,9.80
2015,06,23,07,03,9.80
2015,06,23,07,04,9.80
2015,06,23,07,05,9.80
2015,06,23,07,06,9.80
2015,06,23,07,07,9.90
2015,06,23,07,08,9.90
2015,06,23,07,09,9.90
2015,06,23,07,10,9.90
2015,06,23,07,11,9.90
2015,06,23,07,12,9.90
2015,06,23,07,13,9.90
2015,06,23,07,14,9.90
2015,06,23,07,15,9.90
2015,06,23,07,16,10.00
2015,06,23,07,17,10.00
2015,06,23,07,18,10.00
2015,06,23,07,19,10.00
2015,06,23,07,20,10.10
2015,06,23,07,21,10.10
2015,06,23,07,22,10.10
2015,06,23,07,23,10.10
2015,06,23,07,24,10.10
2015,06,23,07,25,10.10
2015,06,23,07,26,10.10
2015,06,23,07,27,10.20
2015,06,23,07,28,10.20
2015,06,23,07,29,10.20
2015,06,23,07,30,10.20
2015,06,23,07,31,10.20
2015,06,23,07,32,10.20
2015,06,23,07,33,10.20
2015,06,23,07,34,10.20
2015,06,23,07,35,10.30
2015,06,23,07,36,10.30
2015,06,23,07,37,10.30
2015,06,23,07,38,10.30
2015,06,23,07,39,10.40
2015,06,23,07,40,10.40
2015,06,23,07,41,10.40
2015,06,23,07,42,10.50
2015,06,23,07,43,10.50
2015,06,23,07,44,10.60
2015,06,23,07,45,10.60
2015,06,23,07,46,10.70
2015,06,23,07,47,10.70
2015,06,23,07,48,10.70
2015,06,23,07,49,10.80
2015,06,23,07,50,10.80
2015,06,23,07,51,10.80
2015,06,23,07,52,10.80
2015,06,23,07,53,10.90
2015,06,23,07,54,10.90
2015,06,23,07,55,11.00
2015,06,23,07,56,11.00
2015,06,23,07,57,11.10
2015,06,23,07,58,11.10
2015,06,23,07,59,11.10
2015,06,23,08,00,11.20
2015,06,23,08,01,11.20
2015,06,23,08,02,11.20
2015,06,23,08,03,11.30
2015,06,23,08,04,11.30
2015,06,23,08,05,11.30
2015,06,23,08,06,11.40
2015,06,23,08,07,11.40
2015,06,23,08,08,11.50
2015,06,23,08,09,11.60
2015,06,23,08,10,11.60
2015,06,23,08,11,11.60
2015,06,23,08,12,11.70
2015,06,23,08,13,11.70
2015,06,23,08,14,11.70
2015,06,23,08,15,11.70
2015,06,23,08,16,11.80
2015,06,23,08,17,11.80
2015,06,23,08,18,11.80
2015,06,23,08,19,11.80
2015,06,23,08,20,11.90
2015,06,23,08,21,11.90
2015,06,23,08,22,12.00
2015,06,23,08,23,12.00
2015,06,23,08,24,12.10
2015,06,23,08,25,12.10
2015,06,23,08,26,12.20
2015,06,23,08,27,12.20
2015,06,23,08,28,12.30
2015,06,23,08,29,12.30
2015,06,23,08,30,12.30
2015,06,23,08,31,12.40
2015,06,23,08,32,12.40
2015,06,23,08,33,12.40
2015,06,23,08,34,12.50
2015,06,23,08,35,12.50
2015,06,23,08,36,12.50
2015,06,23,08,37,12.60
2015,06,23,08,38,12.60
2015,06,23,08,39,12.60
2015,06,23,08,40,12.70
2015,06,23,08,41,12.70
2015,06,23,08,42,12.70
2015,06,23,08,43,12.80
2015,06,23,08,44,12.80
2015,06,23,08,45,12.80
2015,06,23,08,46,12.80
2015,06,23,08,47,12.90
2015,06,23,08,48,12.90
2015,06,23,08,49,12.90
2015,06,23,08,50,13.00
2015,06,23,08,51,13.00
2015,06,23,08,52,13.10
2015,06,23,08,53,13.10
2015,06,23,08,54,13.20
2015,06,23,08,55,13.20
2015,06,23,08,56,13.30
2015,06,23,08,57,13.30
2015,06,23,08,58,13.40
2015,06,23,08,59,13.50
2015,06,23,09,00,13.60
2015,06,23,09,01,13.60
2015,06,23,09,02,13.70
2015,06,23,09,03,13.70
2015,06,23,09,04,13.80
2015,06,23,09,05,13.80
2015,06,23,09,06,13.90
2015,06,23,09,07,13.90
2015,06,23,09,08,14.00
2015,06,23,09,09,14.10
2015,06,23,09,10,14.10
2015,06,23,09,11,14.20
2015,06,23,09,12,14.20
2015,06,23,09,13,14.30
2015,06,23,09,14,14.40
2015,06,23,09,15,14.40
2015,06,23,09,16,14.50
2015,06,23,09,17,14.60
2015,06,23,09,18,14.70
2015,06,23,09,19,14.90
2015,06,23,09,20,15.00
2015,06,23,09,21,15.00
2015,06,23,09,22,15.10
2015,06,23,09,23,15.20
2015,06,23,09,24,15.40
2015,06,23,09,25,15.50
2015,06,23,09,26,15.60
2015,06,23,09,27,15.70
2015,06,23,09,28,15.80
2015,06,23,09,29,15.90
2015,06,23,09,30,16.00
2015,06,23,09,31,16.10
2015,06,23,09,32,16.20
2015,06,23,09,33,16.30
2015,06,23,09,34,16.40
2015,06,23,09,35,16.50
2015,06,23,09,36,16.60
2015,06,23,09,37,16.70
2015,06,23,09,38,16.80
2015,06,23,09,39,16.90
2015,06,23,09,40,17.00
2015,06,23,09,41,17.10
2015,06,23,09,42,17.20
2015,06,23,09,43,17.30
2015,06,23,09,44,17.30
2015,06,23,09,45,17.40
2015,06,23,09,46,17.50
2015,06,23,09,47,17.60
2015,06,23,09,48,17.70
2015,06,23,09,49,17.80
2015,06,23,09,50,17.90
2015,06,23,09,51,18.00
2015,06,23,09,52,18.10
2015,06,23,09,53,18.10
2015,06,23,09,54,18.20
2015,06,23,09,55,18.30
2015,06,23,09,56,18.40
2015,06,23,09,57,18.40
2015,06,23,09,58,18.50
2015,06,23,09,59,18.60
2015,06,23,10,00,18.60
2015,06,23,10,01,18.70
2015,06,23,10,02,18.70
2015,06,23,10,03,18.70
2015,06,23,10,04,18.70
2015,06,23,10,05,18.60
2015,06,23,10,06,18.50
2015,06,23,10,07,18.50
2015,06,23,10,08,18.50
2015,06,23,10,09,18.40
2015,06,23,10,10,18.40
2015,06,23,10,11,18.40
2015,06,23,10,12,18.40
2015,06,23,10,13,18.40
2015,06,23,10,14,18.40
2015,06,23,10,15,18.40
2015,06,23,10,16,18.40
2015,06,23,10,17,18.50
2015,06,23,10,18,18.50
2015,06,23,10,19,18.50
2015,06,23,10,20,18.60
2015,06,23,10,21,18.60
2015,06,23,10,22,18.60
2015,06,23,10,23,18.70
2015,06,23,10,24,18.70
2015,06,23,10,25,18.70
2015,06,23,10,26,18.80
2015,06,23,10,27,18.80
2015,06,23,10,28,18.80
2015,06,23,10,29,18.80
2015,06,23,10,30,18.80
2015,06,23,10,31,18.90
2015,06,23,10,32,18.90
2015,06,23,10,33,18.90
2015,06,23,10,34,18.90
2015,06,23,10,35,18.90
2015,06,23,10,36,18.90
2015,06,23,10,37,18.90
2015,06,23,10,38,18.90
2015,06,23,10,39,19.00
2015,06,23,10,40,19.00
2015,06,23,10,41,19.00
2015,06,23,10,42,19.10
2015,06,23,10,43,19.10
2015,06,23,10,44,19.10
2015,06,23,10,45,19.20
2015,06,23,10,46,19.20
2015,06,23,10,47,19.30
2015,06,23,10,48,19.30
2015,06,23,10,49,19.40
2015,06,23,10,50,19.50
2015,06,23,10,51,19.60
2015,06,23,10,52,19.70
2015,06,23,10,53,19.80
2015,06,23,10,54,19.90
2015,06,23,10,55,19.90
2015,06,23,10,56,19.90
2015,06,23,10,57,20.00
2015,06,23,10,58,20.00
2015,06,23,10,59,20.10
2015,06,23,11,00,20.20
2015,06,23,11,01,20.20
2015,06,23,11,02,20.40
2015,06,23,11,03,20.40
2015,06,23,11,04,20.50
2015,06,23,11,05,20.60
2015,06,23,11,06,20.70
2015,06,23,11,07,20.90
2015,06,23,11,08,21.00
2015,06,23,11,09,21.00
2015,06,23,11,10,21.10
2015,06,23,11,11,21.10
2015,06,23,11,12,21.10
2015,06,23,11,13,21.10
2015,06,23,11,14,21.10
2015,06,23,11,15,21.10
2015,06,23,11,16,21.10
2015,06,23,11,17,21.20
2015,06,23,11,18,21.20
2015,06,23,11,19,21.30
2015,06,23,11,20,21.30
2015,06,23,11,21,21.40
2015,06,23,11,22,21.40
2015,06,23,11,23,21.50
2015,06,23,11,24,21.60
2015,06,23,11,25,21.60
2015,06,23,11,26,21.70
2015,06,23,11,27,21.70
2015,06,23,11,28,21.80
2015,06,23,11,29,21.80
2015,06,23,11,30,21.80
2015,06,23,11,31,21.90
2015,06,23,11,32,21.90
2015,06,23,11,33,21.90
2015,06,23,11,34,21.90
2015,06,23,11,35,21.90
2015,06,23,11,36,21.90
2015,06,23,11,37,21.90
2015,06,23,11,38,22.00
2015,06,23,11,39,22.00
2015,06,23,11,40,22.10
2015,06,23,11,41,22.10
2015,06,23,11,42,22.10
2015,06,23,11,43,22.10
2015,06,23,11,44,22.10
2015,06,23,11,45,22.10
2015,06,23,11,46,22.10
2015,06,23,11,47,22.10
2015,06,23,11,48,22.10
2015,06,23,11,49,22.10
2015,06,23,11,50,22.10
2015,06,23,11,51,22.10
2015,06,23,11,52,22.10
2015,06,23,11,53,22.20
2015,06,23,11,54,22.20
2015,06,23,11,55,22.20
2015,06,23,11,56,22.30
2015,06,23,11,57,22.30
2015,06,23,11,58,22.30
2015,06,23,11,59,22.30
2015,06,23,12,00,22.40
2015,06,23,12,01,22.40
2015,06,23,12,02,22.40
2015,06,23,12,03,22.40
2015,06,23,12,04,22.40
2015,06,23,12,05,22.40
2015,06,23,12,06,22.50
2015,06,23,12,07,22.50
2015,06,23,12,08,22.60
2015,06,23,12,09,22.60
2015,06,23,12,10,22.60
2015,06,23,12,11,22.60
2015,06,23,12,12,22.60
2015,06,23,12,13,22.60
2015,06,23,12,14,22.70
2015,06,23,12,15,22.70
2015,06,23,12,16,22.80
2015,06,23,12,17,22.90
2015,06,23,12,18,22.90
2015,06,23,12,19,23.00
2015,06,23,12,20,23.00
2015,06,23,12,21,23.10
2015,06,23,12,22,23.20
2015,06,23,12,23,23.20
2015,06,23,12,24,23.20
2015,06,23,12,25,23.30
2015,06,23,12,26,23.30
2015,06,23,12,27,23.30
2015,06,23,12,28,23.30
2015,06,23,12,29,23.40
2015,06,23,12,30,23.40
2015,06,23,12,31,23.40
2015,06,23,12,32,23.40
2015,06,23,12,33,23.40
2015,06,23,12,34,23.50
2015,06,23,12,35,23.50
2015,06,23,12,36,23.50
2015,06,23,12,37,23.50
2015,06,23,12,38,23.60
2015,06,23,12,39,23.60
2015,06,23,12,40,23.50
2015,06,23,12,41,23.60
2015,06,23,12,42,23.60
2015,06,23,12,43,23.60
2015,06,23,12,44,23.50
2015,06,23,12,45,23.40
2015,06,23,12,46,23.30
2015,06,23,12,47,23.30
2015,06,23,12,48,23.20
2015,06,23,12,49,23.20
2015,06,23,12,50,23.20
2015,06,23,12,51,23.20
2015,06,23,12,52,23.10
2015,06,23,12,53,23.10
2015,06,23,12,54,23.10
2015,06,23,12,55,23.10
2015,06,23,12,56,23.10
2015,06,23,12,57,23.10
2015,06,23,12,58,23.10
2015,06,23,12,59,23.10
2015,06,23,13,00,23.10
2015,06,23,13,01,23.00
2015,06,23,13,02,22.90
2015,06,23,13,03,22.80
2015,06,23,13,04,22.80
2015,06,23,13,05,22.70
2015,06,23,13,06,22.70
2015,06,23,13,07,22.60
2015,06,23,13,08,22.60
2015,06,23,13,09,22.70
2015,06,23,13,10,22.70
2015,06,23,13,11,22.60
2015,06,23,13,12,22.60
2015,06,23,13,13,22.60
2015,06,23,13,14,22.60
2015,06,23,13,15,22.70
2015,06,23,13,16,22.70
2015,06,23,13,17,22.70
2015,06,23,13,18,22.70
2015,06,23,13,19,22.70
2015,06,23,13,20,22.70
2015,06,23,13,21,22.70
2015,06,23,13,22,22.70
2015,06,23,13,23,22.80
2015,06,23,13,24,22.80
2015,06,23,13,25,22.80
2015,06,23,13,26,22.80
2015,06,23,13,27,22.80
2015,06,23,13,28,22.80
2015,06,23,13,29,22.80
2015,06,23,13,30,22.80
2015,06,23,13,31,22.90
2015,06,23,13,32,22.90
2015,06,23,13,33,22.90
2015,06,23,13,34,22.90
2015,06,23,13,35,22.90
2015,06,23,13,36,23.00
2015,06,23,13,37,23.00
2015,06,23,13,38,23.10
2015,06,23,13,39,23.10
2015,06,23,13,40,23.10
2015,06,23,13,41,23.10
2015,06,23,13,42,23.20
2015,06,23,13,43,23.20
2015,06,23,13,44,23.20
2015,06,23,13,45,23.30
2015,06,23,13,46,23.30
2015,06,23,13,47,23.30
2015,06,23,13,48,23.30
2015,06,23,13,49,23.30
2015,06,23,13,50,23.40
2015,06,23,13,51,23.40
2015,06,23,13,52,23.40
2015,06,23,13,53,23.40
2015,06,23,13,54,23.50
2015,06,23,13,55,23.50
2015,06,23,13,56,23.60
2015,06,23,13,57,23.70
2015,06,23,13,58,23.70
2015,06,23,13,59,23.80
2015,06,23,14,00,23.80
2015,06,23,14,01,23.90
2015,06,23,14,02,23.90
2015,06,23,14,03,24.00
2015,06,23,14,04,24.20
2015,06,23,14,05,24.30
2015,06,23,14,06,24.40
2015,06,23,14,07,24.50
2015,06,23,14,08,24.60
2015,06,23,14,09,24.60
2015,06,23,14,10,24.60
2015,06,23,14,11,24.70
2015,06,23,14,12,24.70
2015,06,23,14,13,24.70
2015,06,23,14,14,24.60
2015,06,23,14,15,24.60
2015,06,23,14,16,24.70
2015,06,23,14,17,24.70
2015,06,23,14,18,24.70
2015,06,23,14,19,24.80
2015,06,23,14,20,24.80
2015,06,23,14,21,24.90
2015,06,23,14,22,25.00
2015,06,23,14,23,25.10
2015,06,23,14,24,25.20
2015,06,23,14,25,25.30
2015,06,23,14,26,25.40
2015,06,23,14,27,25.40
2015,06,23,14,28,25.50
2015,06,23,14,29,25.60
2015,06,23,14,30,25.70
2015,06,23,14,31,25.70
2015,06,23,14,32,25.80
2015,06,23,14,33,25.90
2015,06,23,14,34,25.90
2015,06,23,14,35,25.80
2015,06,23,14,36,25.80
2015,06,23,14,37,25.80
2015,06,23,14,38,25.90
2015,06,23,14,39,25.90
2015,06,23,14,40,25.80
2015,06,23,14,41,25.90
2015,06,23,14,42,25.90
2015,06,23,14,43,25.90
2015,06,23,14,44,25.90
2015,06,23,14,45,25.90
2015,06,23,14,46,25.90
2015,06,23,14,47,25.90
2015,06,23,14,48,25.90
2015,06,23,14,49,25.90
2015,06,23,14,50,25.90
2015,06,23,14,51,26.00
2015,06,23,14,52,26.00
2015,06,23,14,53,26.10
2015,06,23,14,54,26.10
2015,06,23,14,55,26.10
2015,06,23,14,56,26.20
2015,06,23,14,57,26.20
2015,06,23,14,58,26.20
2015,06,23,14,59,26.20
2015,06,23,15,00,26.20
2015,06,23,15,01,26.20
2015,06,23,15,02,26.20
2015,06,23,15,03,26.20
2015,06,23,15,04,26.20
2015,06,23,15,05,26.20
2015,06,23,15,06,26.20
2015,06,23,15,07,26.20
2015,06,23,15,08,26.20
2015,06,23,15,09,26.20
2015,06,23,15,10,26.20
2015,06,23,15,11,26.20
2015,06,23,15,12,26.30
2015,06,23,15,13,26.20
2015,06,23,15,14,26.20
2015,06,23,15,15,26.20
2015,06,23,15,16,26.30
2015,06,23,15,17,26.30
2015,06,23,15,18,26.40
2015,06,23,15,19,26.50
2015,06,23,15,20,26.60
2015,06,23,15,21,26.70
2015,06,23,15,22,26.70
2015,06,23,15,23,26.70
2015,06,23,15,24,26.70
2015,06,23,15,25,26.70
2015,06,23,15,26,26.60
2015,06,23,15,27,26.60
2015,06,23,15,28,26.50
2015,06,23,15,29,26.50
2015,06,23,15,30,26.50
2015,06,23,15,31,26.40
2015,06,23,15,32,26.30
2015,06,23,15,33,26.10
2015,06,23,15,34,26.00
2015,06,23,15,35,26.00
2015,06,23,15,36,26.00
2015,06,23,15,37,26.00
2015,06,23,15,38,26.10
2015,06,23,15,39,26.20
2015,06,23,15,40,26.30
2015,06,23,15,41,26.40
2015,06,23,15,42,26.50
2015,06,23,15,43,26.60
2015,06,23,15,44,26.60
2015,06,23,15,45,26.70
2015,06,23,15,46,26.70
2015,06,23,15,47,26.70
2015,06,23,15,48,26.60
2015,06,23,15,49,26.60
2015,06,23,15,50,26.70
2015,06,23,15,51,26.70
2015,06,23,15,52,26.70
2015,06,23,15,53,26.70
2015,06,23,15,54,26.80
2015,06,23,15,55,26.80
2015,06,23,15,56,26.80
2015,06,23,15,57,26.80
2015,06,23,15,58,26.80
2015,06,23,15,59,26.80
2015,06,23,16,00,26.80
2015,06,23,16,01,26.80
2015,06,23,16,02,26.90
2015,06,23,16,03,27.00
2015,06,23,16,04,27.10
2015,06,23,16,05,27.20
2015,06,23,16,06,27.30
2015,06,23,16,07,27.40
2015,06,23,16,08,27.40
2015,06,23,16,09,27.50
2015,06,23,16,10,27.50
2015,06,23,16,11,27.40
2015,06,23,16,12,27.40
2015,06,23,16,13,27.40
2015,06,23,16,14,27.50
2015,06,23,16,15,27.60
2015,06,23,16,16,27.60
2015,06,23,16,17,27.70
2015,06,23,16,18,27.70
2015,06,23,16,19,27.70
2015,06,23,16,20,27.70
2015,06,23,16,21,27.70
2015,06,23,16,22,27.60
2015,06,23,16,23,27.50
2015,06,23,16,24,27.50
2015,06,23,16,25,27.40
2015,06,23,16,26,27.40
2015,06,23,16,27,27.30
2015,06,23,16,28,27.20
2015,06,23,16,29,27.10
2015,06,23,16,30,27.00
2015,06,23,16,31,26.90
2015,06,23,16,32,26.80
2015,06,23,16,33,26.60
2015,06,23,16,34,26.50
2015,06,23,16,35,26.40
2015,06,23,16,36,26.30
2015,06,23,16,37,26.20
2015,06,23,16,38,26.10
2015,06,23,16,39,26.00
2015,06,23,16,40,25.90
2015,06,23,16,41,25.90
2015,06,23,16,42,25.90
2015,06,23,16,43,25.90
2015,06,23,16,44,25.90
2015,06,23,16,45,25.90
2015,06,23,16,46,25.90
2015,06,23,16,47,25.90
2015,06,23,16,48,25.90
2015,06,23,16,49,25.90
2015,06,23,16,50,25.90
2015,06,23,16,51,25.90
2015,06,23,16,52,25.90
2015,06,23,16,53,26.00
2015,06,23,16,54,26.10
2015,06,23,16,55,26.10
2015,06,23,16,56,26.10
2015,06,23,16,57,26.10
2015,06,23,16,58,26.10
2015,06,23,16,59,26.10
2015,06,23,17,00,26.10
2015,06,23,17,01,26.10
2015,06,23,17,02,26.00
2015,06,23,17,03,26.00
2015,06,23,17,04,26.00
2015,06,23,17,05,26.00
2015,06,23,17,06,26.10
2015,06,23,17,07,26.20
2015,06,23,17,08,26.30
2015,06,23,17,09,26.30
2015,06,23,17,10,26.40
2015,06,23,17,11,26.50
2015,06,23,17,12,26.70
2015,06,23,17,13,26.70
2015,06,23,17,14,26.80
2015,06,23,17,15,26.70
2015,06,23,17,16,26.70
2015,06,23,17,17,26.50
2015,06,23,17,18,26.40
2015,06,23,17,19,26.40
2015,06,23,17,20,26.40
2015,06,23,17,21,26.40
2015,06,23,17,22,26.40
2015,06,23,17,23,26.40